Regional Weather Roundup
Issued by NWS

Home | Current Version | Previous Version | Graphics & Text | Print | Product List | Glossary On
Versions: 1 2 3 4 5 6 7 8 9 10 11 12 13 14 15 16 17 18 19 20 21 22 23 24 25 26 27 28 29 30 31 32 33 34 35 36 37 38 39 40 41 42 43 44 45 46 47 48 49 50
000
ASUS45 KPSR 170700
RWRAZ

PRELIMINARY ARIZONA REGIONAL HOURLY WEATHER ROUNDUP
NATIONAL WEATHER SERVICE PHOENIX AZ
1200 AM MST THU APR 17 2014

NOTE: FAIR INDICATES FEW OR NO CLOUDS BELOW 12,000 FEET WITH NO
SIGNIFICANT WEATHER AND/OR OBSTRUCTIONS TO VISIBILITY.

AZZ001>003-036-170800-
NORTHWEST ARIZONA

CITY           SKY/WX    TMP DP  RH WIND       PRES   REMARKS
KINGMAN        CLEAR     55  13  18 E5        29.88R
$$

AZZ004>008-015-016-018-170800-
NORTH CENTRAL ARIZONA

CITY           SKY/WX    TMP DP  RH WIND       PRES   REMARKS
GRAND CANYON   CLEAR     31  15  52 NE6       30.06S WCI  25
WILLIAMS       CLEAR     37  14  38 SE8       30.13R WCI  31
PRESCOTT       CLEAR     50  24  36 S3        29.99R
FLAGSTAFF      CLEAR     34  14  43 CALM      30.08R
PAYSON         CLEAR     54  16  22 CALM      30.01R
$$

AZZ009>014-017-170800-
NORTHEAST ARIZONA

CITY           SKY/WX    TMP DP  RH WIND       PRES   REMARKS
WINSLOW        NOT AVBL
SAINT JOHNS    CLEAR     46  15  28 CALM      30.00R
WINDOW ROCK    CLEAR     33  18  53 CALM      30.06R
SHOW LOW       CLEAR     41  10  28 S5        30.07R
$$

AZZ023-170800-
GREATER PHOENIX AREA

CITY           SKY/WX    TMP DP  RH WIND       PRES   REMARKS
PHOENIX        CLEAR     80  22  11 NW7       29.77R
LUKE AFB       NOT AVBL
DEER VALLEY    CLEAR     67  22  18 E5        29.79R
SCOTTSDALE     CLEAR     76  25  15 NW5       29.82R
MESA-GATEWAY   CLEAR     66  21  18 E5        29.82R
$$

AZZ027-028-170800-
SOUTHWEST MARICOPA COUNTY AND PINAL COUNTY

CITY           SKY/WX    TMP DP  RH WIND       PRES   REMARKS
CASA GRANDE    CLEAR     66  10  11 CALM      29.82R
$$

AZZ503-504-507>509-170800-
SOUTHEAST ARIZONA

CITY           SKY/WX    TMP DP  RH WIND       PRES   REMARKS
TUCSON         CLEAR     70  20  15 S9        29.91R
DAVIS-MONTHAN  CLEAR     69  25  19 S10       29.90R
NOGALES        CLEAR     55  18  23 SE5       29.98R
SIERRA VISTA   CLEAR     61  16  17 NW14      29.99R
SAFFORD        CLEAR     61   2   9 NW8       29.86R
$$

AZZ020-021-025-026-031-170800-
SOUTHWEST ARIZONA

CITY           SKY/WX    TMP DP  RH WIND       PRES   REMARKS
YUMA           CLEAR     72  32  23 S15       29.75R
$$

CAZ031-033-041-043-047-048-061-170800-
SOUTHERN CALIFORNIA

CITY           SKY/WX    TMP DP  RH WIND       PRES   REMARKS
DOWNTOWN L.A.  CLEAR     60  53  77 E3        29.86S
L.A. AIRPORT   CLEAR     59  52  77 E5        29.87R
SAN DIEGO      CLOUDY    61  53  75 SE6       29.90S
BURBANK        CLEAR     59  52  77 E5        29.86S
ONTARIO        CLEAR     59  52  77 SW6       29.87R
RIVERSIDE      CLEAR     59  51  75 W3        29.87R
PALM SPRINGS   CLEAR     73  44  35 CALM      29.76R
IMPERIAL       CLEAR     71  38  29 E3        29.72R
BLYTHE         CLEAR     77  24  14 S8        29.75R
$$

NVZ020-UTZ003-170800-
SOUTHERN NEVADA-UTAH

CITY           SKY/WX    TMP DP  RH WIND       PRES   REMARKS
LAS VEGAS      NOT AVBL
SALT LAKE CITY CLEAR     42  17  36 SE8       30.03R
$$

NMZ009-TXZ055-170800-
NEW MEXICO-WEST TEXAS

CITY           SKY/WX    TMP DP  RH WIND       PRES   REMARKS
ALBUQUERQUE    CLOUDY    56  24  29 NE7       30.00R
EL PASO        CLOUDY    70   1   6 W16       29.87R
$$


........................KEY........................
SKY/WX - SKY CONDITION/WEATHER
TMP    - TEMPERATURE IN FAHRENHEIT
DP     - DEW POINT IN FAHRENHEIT
RH     - RELATIVE HUMIDITY IN PERCENT
WIND   - DIRECTION AND SPEED IN MILES PER HOUR (MPH)
VRB    - VARIABLE WIND DIRECTION
PRES   - MEAN SEA LEVEL PRESSURE IN INCHES OF MERCURY
         F - FALLING PRESSURE   R - RISING PRESSURE
         S - STEADY PRESSURE
VSB    - VISIBILITY IN MILES
HX     - HEAT INDEX IN FAHRENHEIT
WCI    - WIND CHILL INDEX IN FAHRENHEIT
TC     - TEMPERATURE IN CELSIUS WHICH IS ALSO KNOWN AS
         TEMPERATURE IN CENTIGRADE
AFB    - AIR FORCE BASE
         LUKE AFB IS LUKE AIR FORCE BASE
         DAVIS-MONTHAN IS DAVIS-MONTHAN AIR FORCE BASE
NAS    - NAVAL AIR STATION
         EL CENTRO NAS IS EL CENTRO NAVAL AIR STATION
N/A    - NOT AVAILABLE



USA.gov is the U.S. government's official web portal to all federal, state and local government web resources and services.